EW1644 Weather Reports


Display with metric or nautical units.
time (UTC)temp
F
wind
direction
speed
MPH
gust
MPH
rain 1hr
in
rain 24hr
in
rain mn
in
humidity
%
barometer
mb
20260906223050 73 345 0.0 0.0 0.00 0.00 0.00 25 1006.6
20260906221549 75 334 0.0 0.0 0.00 0.00 0.00 24 1006.6
20260906220048 75 44 0.0 0.0 0.00 0.00 0.00 24 1006.7
20260906214547 76 4 0.0 0.0 0.00 0.00 0.00 24 1006.8
20260906213042 76 291 0.0 0.0 0.00 0.00 0.00 23 1007.3
20260906211546 75 59 0.0 0.0 0.00 0.00 0.00 24 1007.4
20260906210049 76 348 0.0 0.0 0.00 0.00 0.00 23 1007.7
20260906204536 75 347 0.0 0.0 0.00 0.00 0.00 23 1007.8
20260906203031 75 55 0.0 0.0 0.00 0.00 0.00 24 1007.5
20260906201528 75 346 0.0 0.0 0.00 0.00 0.00 22 1008.3
20260906200026 75 53 0.0 0.0 0.00 0.00 0.00 21 1008.7
20260906194520 74 301 0.0 0.0 0.00 0.00 0.00 21 1008.8
20260906193017 73 22 0.0 0.0 0.00 0.00 0.00 22 1009.1
20260906191515 73 354 0.0 0.0 0.00 0.00 0.00 25 1009.1
20260906190017 72 342 0.0 0.0 0.00 0.00 0.00 26 1009.4
20260906184510 70 337 0.0 0.0 0.00 0.00 0.00 29 1009.6
20260906183011 69 298 0.0 0.0 0.00 0.00 0.00 30 1009.7
20260906181522 70 331 0.0 0.0 0.00 0.00 0.00 29 1009.8
20260906180006 72 356 0.0 0.0 0.00 0.00 0.00 28 1010.0
20260906174502 69 302 0.0 0.0 0.00 0.00 0.00 31 1010.2
20260906173105 67 295 0.0 0.0 0.00 0.00 0.00 34 1010.6
20260906171600 66 298 0.0 0.0 0.00 0.00 0.00 34 1010.7
20260906170058 65 343 0.0 0.0 0.00 0.00 0.00 35 1011.0
20260906164551 64 304 0.0 0.0 0.00 0.00 0.00 41 1011.1
20260906163048 62 3 0.0 0.0 0.00 0.00 0.00 43 1011.4
20260906161544 60 332 0.0 0.0 0.00 0.00 0.00 46 1011.6
20260906160043 58 356 0.0 0.0 0.00 0.00 0.00 47 1011.8
20260906154545 56 348 0.0 0.0 0.00 0.00 0.00 56 1011.8
20260906153037 53 347 0.0 0.0 0.00 0.00 0.00 62 1011.9
20260906151528 50 44 0.0 0.0 0.00 0.00 0.00 69 1012.0
20260906150026 50 44 0.0 0.0 0.00 0.00 0.00 69 1012.0
20260906144526 50 44 0.0 0.0 0.00 0.00 0.00 66 1012.0
20260906143032 50 34 0.0 0.0 0.00 0.00 0.00 64 1011.9
20260906141524 51 34 0.0 0.0 0.00 0.00 0.00 64 1011.8
20260906140038 49 58 0.0 0.0 0.00 0.00 0.00 70 1011.9
20260906134518 47 58 0.0 0.0 0.00 0.00 0.00 71 1011.6
20260906133016 46 58 0.0 0.0 0.00 0.00 0.00 74 1011.5
20260906131517 45 59 0.0 0.0 0.00 0.00 0.00 75 1011.1
20260906130030 45 66 0.0 0.0 0.00 0.00 0.00 74 1010.7
20260906124516 45 66 0.0 0.0 0.00 0.00 0.00 74 1010.6
20260906123015 45 66 0.0 0.0 0.00 0.00 0.00 74 1010.6
20260906121510 44 66 0.0 0.0 0.00 0.00 0.00 76 1010.5
20260906120010 44 66 0.0 0.0 0.00 0.00 0.00 75 1010.6
20260906114508 44 66 0.0 0.0 0.00 0.00 0.00 75 1010.8
20260906113005 45 66 0.0 0.0 0.00 0.00 0.00 73 1011.0
20260906111506 46 67 0.0 0.0 0.00 0.00 0.00 72 1010.9
20260906110011 46 66 0.0 0.0 0.00 0.00 0.00 72 1010.9
20260906104505 46 67 0.0 0.0 0.00 0.00 0.00 73 1010.9
20260906103100 46 66 0.0 0.0 0.00 0.00 0.00 73 1010.7
20260906101557 46 66 0.0 0.0 0.00 0.00 0.00 72 1010.7
20260906100055 46 66 0.0 0.0 0.00 0.00 0.00 71 1010.6
20260906094554 47 66 0.0 0.0 0.00 0.00 0.00 71 1010.5
20260906093101 47 66 0.0 0.0 0.00 0.00 0.00 69 1010.3
20260906091549 48 66 0.0 0.0 0.00 0.00 0.00 67 1010.0
20260906090044 48 65 0.0 0.0 0.00 0.00 0.00 68 1009.7
20260906084556 48 65 0.0 0.0 0.00 0.00 0.00 67 1010.8
20260906083054 49 65 0.0 0.0 0.00 0.00 0.00 66 1010.8
20260906081555 48 65 0.0 0.0 0.00 0.00 0.00 66 1010.8
20260906080052 49 65 0.0 0.0 0.00 0.00 0.00 65 1010.7
20260906074549 49 65 0.0 0.0 0.00 0.00 0.00 64 1010.7
20260906073045 50 65 0.0 0.0 0.00 0.00 0.00 63 1010.8
20260906071556 50 64 0.0 0.0 0.00 0.00 0.00 62 1010.8
20260906070043 52 65 0.0 0.0 0.00 0.00 0.00 60 1010.7
20260906064542 51 65 0.0 0.0 0.00 0.00 0.00 60 1010.8
20260906063036 52 64 0.0 0.0 0.00 0.00 0.00 58 1011.0
20260906061534 53 64 0.0 0.0 0.00 0.00 0.00 57 1010.7
20260906060031 54 64 0.0 0.0 0.00 0.00 0.00 56 1010.7
20260906054531 54 64 0.0 0.0 0.00 0.00 0.00 55 1010.7
20260906053036 55 64 0.0 0.0 0.00 0.00 0.00 54 1010.5
20260906051533 55 64 0.0 0.0 0.00 0.00 0.00 53 1010.4
20260906050049 55 64 0.0 0.0 0.00 0.00 0.00 53 1010.4
20260906044529 55 64 0.0 0.0 0.00 0.00 0.00 53 1010.4
20260906043028 55 64 0.0 0.0 0.00 0.00 0.00 52 1010.5
20260906041528 56 64 0.0 0.0 0.00 0.00 0.00 50 1010.6
20260906040027 57 65 0.0 0.0 0.00 0.00 0.00 49 1010.4
20260906034537 56 56 0.0 0.0 0.00 0.00 0.00 49 1010.4
20260906033028 57 53 0.0 0.0 0.00 0.00 0.00 48 1010.4
20260906031528 58 53 0.0 0.0 0.00 0.00 0.00 47 1010.2
20260906030024 58 53 0.0 0.0 0.00 0.00 0.00 46 1009.8
20260906024524 59 53 0.0 0.0 0.00 0.00 0.00 45 1009.4
20260906023026 60 53 0.0 0.0 0.00 0.00 0.00 43 1009.3
20260906021523 61 53 0.0 0.0 0.00 0.00 0.00 42 1009.0
20260906020022 62 53 0.0 0.0 0.00 0.00 0.00 40 1008.8
20260906014524 64 40 0.0 0.0 0.00 0.00 0.00 37 1008.7
20260906013021 65 60 0.0 0.0 0.00 0.00 0.00 36 1008.7
20260906011521 66 72 0.0 0.0 0.00 0.00 0.00 33 1008.5
20260906010021 67 57 0.0 0.0 0.00 0.00 0.00 32 1008.4
20260906004522 68 30 0.0 0.0 0.00 0.00 0.00 32 1008.4
20260906003020 69 351 0.0 0.0 0.00 0.00 0.00 31 1008.2
20260906001519 70 108 0.0 0.0 0.00 0.00 0.00 30 1008.2
20260906000019 71 2 0.0 0.0 0.00 0.00 0.00 29 1007.8
20260905234518 71 31 0.0 0.0 0.00 0.00 0.00 28 1008.0
20260905233025 72 335 0.0 0.0 0.00 0.00 0.00 26 1007.9
20260905231517 75 342 0.0 0.0 0.00 0.00 0.00 25 1007.8
20260905230014 76 53 0.0 0.0 0.00 0.00 0.00 23 1008.0
20260905224513 76 359 0.0 0.0 0.00 0.00 0.00 24 1008.0